Time,TemperatureF,DewpointF,PressureIn,WindDirection,WindDirectionDegrees,WindSpeedMPH,WindSpeedGustMPH,Humidity,HourlyPrecipIn,Conditions,Clouds,dailyrainin,SoftwareType,DateUTC
2013-03-02 00:00:00,28.7,23.3,29.91,North,5,5.0,7.0,80,0.00,,,0.00,Wunderground v.1.15,2013-03-02 05:00:00,
2013-03-02 00:02:00,28.6,23.5,29.91,ENE,66,11.0,11.0,81,0.00,,,0.00,Wunderground v.1.15,2013-03-02 05:02:00,
2013-03-02 00:08:00,28.5,23.4,29.91,North,5,3.0,11.0,81,0.00,,,0.00,Wunderground v.1.15,2013-03-02 05:08:00,
2013-03-02 00:13:00,28.5,23.4,29.91,North,5,12.0,12.0,81,0.00,,,0.00,Wunderground v.1.15,2013-03-02 05:13:00,
2013-03-02 00:18:00,28.4,23.3,29.91,NNE,17,4.0,12.0,81,0.00,,,0.00,Wunderground v.1.15,2013-03-02 05:18:00,
2013-03-02 00:23:00,28.3,23.2,29.91,North,5,8.0,8.0,81,0.00,,,0.00,Wunderground v.1.15,2013-03-02 05:23:00,
2013-03-02 00:29:00,28.2,23.1,29.91,NNE,22,8.0,8.0,81,0.00,,,0.00,Wunderground v.1.15,2013-03-02 05:29:00,
2013-03-02 00:34:00,28.1,23.0,29.92,East,80,7.0,9.0,81,0.00,,,0.00,Wunderground v.1.15,2013-03-02 05:34:00,
2013-03-02 00:39:00,28.0,22.9,29.92,NNE,24,7.0,9.0,81,0.00,,,0.00,Wunderground v.1.15,2013-03-02 05:39:00,
2013-03-02 00:45:00,27.9,23.1,29.92,NNE,16,8.0,12.0,82,0.00,,,0.00,Wunderground v.1.15,2013-03-02 05:45:00,
2013-03-02 00:50:00,27.8,23.0,29.91,North,9,2.0,8.0,82,0.00,,,0.00,Wunderground v.1.15,2013-03-02 05:50:00,
2013-03-02 00:55:00,27.6,22.8,29.91,North,5,6.0,12.0,82,0.00,,,0.00,Wunderground v.1.15,2013-03-02 05:55:00,
2013-03-02 01:01:00,27.5,22.7,29.91,North,355,4.0,7.0,82,0.00,,,0.00,Wunderground v.1.15,2013-03-02 06:01:00,
2013-03-02 01:06:00,27.4,22.9,29.91,NNE,17,5.0,9.0,83,0.00,,,0.00,Wunderground v.1.15,2013-03-02 06:06:00,
2013-03-02 01:12:00,27.3,22.8,29.91,North,11,3.0,7.0,83,0.00,,,0.00,Wunderground v.1.15,2013-03-02 06:12:00,
2013-03-02 01:17:00,27.2,22.7,29.91,North,360,5.0,7.0,83,0.00,,,0.00,Wunderground v.1.15,2013-03-02 06:17:00,
2013-03-02 01:23:00,27.1,22.6,29.92,NNE,17,1.0,7.0,83,0.00,,,0.00,Wunderground v.1.15,2013-03-02 06:23:00,
2013-03-02 01:28:00,27.0,22.5,29.92,North,5,7.0,7.0,83,0.00,,,0.00,Wunderground v.1.15,2013-03-02 06:28:00,
2013-03-02 01:33:00,27.0,22.5,29.92,North,5,3.0,6.0,83,0.00,,,0.00,Wunderground v.1.15,2013-03-02 06:33:00,
2013-03-02 01:39:00,26.9,22.7,29.92,North,9,8.0,8.0,84,0.00,,,0.00,Wunderground v.1.15,2013-03-02 06:39:00,
2013-03-02 01:45:00,26.6,22.7,29.92,NNE,19,5.0,6.0,85,0.00,,,0.00,Wunderground v.1.15,2013-03-02 06:45:00,
2013-03-02 01:50:00,26.3,22.7,29.92,North,355,3.0,5.0,86,0.00,,,0.00,Wunderground v.1.15,2013-03-02 06:50:00,
2013-03-02 01:55:00,26.2,22.9,29.92,North,351,1.0,7.0,87,0.00,,,0.00,Wunderground v.1.15,2013-03-02 06:55:00,
2013-03-02 02:00:00,26.0,22.7,29.92,NNE,26,2.0,4.0,87,0.00,,,0.00,Wunderground v.1.15,2013-03-02 07:00:00,
2013-03-02 02:05:00,25.9,22.6,29.92,NNW,348,2.0,6.0,87,0.00,,,0.00,Wunderground v.1.15,2013-03-02 07:05:00,
2013-03-02 02:10:00,25.8,22.5,29.92,NNW,339,2.0,4.0,87,0.00,,,0.00,Wunderground v.1.15,2013-03-02 07:10:00,
2013-03-02 02:15:00,25.8,22.7,29.92,NNW,332,1.0,5.0,88,0.00,,,0.00,Wunderground v.1.15,2013-03-02 07:15:00,
2013-03-02 02:20:00,25.9,22.6,29.92,North,350,2.0,2.0,87,0.00,,,0.00,Wunderground v.1.15,2013-03-02 07:20:00,
2013-03-02 02:25:00,26.0,22.7,29.91,North,5,10.0,12.0,87,0.00,,,0.00,Wunderground v.1.15,2013-03-02 07:25:00,
2013-03-02 02:30:00,26.0,22.7,29.91,NW,325,5.0,8.0,87,0.00,,,0.00,Wunderground v.1.15,2013-03-02 07:30:00,
2013-03-02 02:35:00,26.0,22.7,29.91,North,5,4.0,10.0,87,0.00,,,0.00,Wunderground v.1.15,2013-03-02 07:35:00,
2013-03-02 02:40:00,25.9,22.6,29.91,NNW,338,7.0,11.0,87,0.00,,,0.00,Wunderground v.1.15,2013-03-02 07:40:00,
2013-03-02 02:45:00,25.8,22.5,29.91,North,5,7.0,11.0,87,0.00,,,0.00,Wunderground v.1.15,2013-03-02 07:45:00,
2013-03-02 02:51:00,25.8,22.5,29.91,NNE,26,6.0,8.0,87,0.00,,,0.00,Wunderground v.1.15,2013-03-02 07:51:00,
2013-03-02 02:56:00,25.7,22.4,29.91,NE,38,5.0,10.0,87,0.00,,,0.00,Wunderground v.1.15,2013-03-02 07:56:00,
2013-03-02 03:01:00,25.7,22.1,29.91,North,5,7.0,12.0,86,0.00,,,0.00,Wunderground v.1.15,2013-03-02 08:01:00,
2013-03-02 03:06:00,25.6,22.0,29.91,NNE,20,5.0,12.0,86,0.00,,,0.00,Wunderground v.1.15,2013-03-02 08:06:00,
2013-03-02 03:11:00,25.6,22.0,29.91,North,360,10.0,10.0,86,0.00,,,0.00,Wunderground v.1.15,2013-03-02 08:11:00,
2013-03-02 03:16:00,25.5,21.9,29.91,NNE,14,5.0,10.0,86,0.00,,,0.00,Wunderground v.1.15,2013-03-02 08:16:00,
2013-03-02 03:21:00,25.4,21.8,29.91,NNE,13,5.0,9.0,86,0.00,,,0.00,Wunderground v.1.15,2013-03-02 08:21:00,
2013-03-02 03:26:00,25.3,21.4,29.91,North,9,6.0,9.0,85,0.00,,,0.00,Wunderground v.1.15,2013-03-02 08:26:00,
2013-03-02 03:31:00,25.3,21.4,29.91,North,5,10.0,11.0,85,0.00,,,0.00,Wunderground v.1.15,2013-03-02 08:31:00,
2013-03-02 03:36:00,25.2,21.6,29.91,NNE,30,6.0,12.0,86,0.00,,,0.00,Wunderground v.1.15,2013-03-02 08:36:00,
2013-03-02 03:41:00,25.3,21.7,29.91,North,9,9.0,11.0,86,0.00,,,0.00,Wunderground v.1.15,2013-03-02 08:41:00,
2013-03-02 03:46:00,25.3,21.7,29.91,North,5,3.0,12.0,86,0.00,,,0.00,Wunderground v.1.15,2013-03-02 08:46:00,
2013-03-02 03:51:00,25.3,21.7,29.91,North,355,6.0,13.0,86,0.00,,,0.00,Wunderground v.1.15,2013-03-02 08:51:00,
2013-03-02 03:56:00,25.3,21.7,29.91,NE,37,5.0,13.0,86,0.00,,,0.00,Wunderground v.1.15,2013-03-02 08:56:00,
2013-03-02 04:01:00,25.3,21.4,29.91,NW,322,0.0,7.0,85,0.00,,,0.00,Wunderground v.1.15,2013-03-02 09:01:00,
2013-03-02 04:06:00,25.2,21.3,29.91,NNE,17,7.0,7.0,85,0.00,,,0.00,Wunderground v.1.15,2013-03-02 09:06:00,
2013-03-02 04:11:00,25.2,21.3,29.91,NW,325,2.0,11.0,85,0.00,,,0.00,Wunderground v.1.15,2013-03-02 09:11:00,
2013-03-02 04:16:00,25.2,23.2,29.91,North,5,9.0,13.0,92,0.00,,,0.00,Wunderground v.1.15,2013-03-02 09:16:00,
2013-03-02 04:21:00,25.1,21.5,29.91,NNE,15,9.0,9.0,86,0.00,,,0.00,Wunderground v.1.15,2013-03-02 09:21:00,
2013-03-02 04:26:00,25.1,21.5,29.91,NNW,336,3.0,9.0,86,0.00,,,0.00,Wunderground v.1.15,2013-03-02 09:26:00,
2013-03-02 04:31:00,25.1,21.5,29.91,North,355,6.0,6.0,86,0.00,,,0.00,Wunderground v.1.15,2013-03-02 09:31:00,
2013-03-02 04:36:00,25.1,21.8,29.91,NE,36,5.0,10.0,87,0.00,,,0.00,Wunderground v.1.15,2013-03-02 09:36:00,
2013-03-02 04:41:00,25.1,21.5,29.91,North,355,4.0,13.0,86,0.00,,,0.00,Wunderground v.1.15,2013-03-02 09:41:00,
2013-03-02 04:46:00,25.2,21.6,29.91,WNW,296,2.0,13.0,86,0.00,,,0.00,Wunderground v.1.15,2013-03-02 09:46:00,
2013-03-02 04:51:00,25.2,21.3,29.91,North,355,10.0,11.0,85,0.00,,,0.00,Wunderground v.1.15,2013-03-02 09:51:00,
2013-03-02 04:56:00,25.3,21.4,29.91,NNW,331,3.0,11.0,85,0.00,,,0.00,Wunderground v.1.15,2013-03-02 09:56:00,
2013-03-02 05:01:00,25.3,21.4,29.91,West,270,4.0,5.0,85,0.00,,,0.00,Wunderground v.1.15,2013-03-02 10:01:00,
2013-03-02 05:07:00,25.4,21.5,29.91,North,5,2.0,8.0,85,0.00,,,0.00,Wunderground v.1.15,2013-03-02 10:07:00,
2013-03-02 05:13:00,25.4,21.2,29.91,NNW,330,1.0,6.0,84,0.00,,,0.00,Wunderground v.1.15,2013-03-02 10:13:00,
2013-03-02 05:18:00,25.4,21.5,29.91,NW,317,5.0,10.0,85,0.00,,,0.00,Wunderground v.1.15,2013-03-02 10:18:00,
2013-03-02 05:24:00,25.4,21.5,29.91,WNW,296,1.0,10.0,85,0.00,,,0.00,Wunderground v.1.15,2013-03-02 10:24:00,
2013-03-02 05:29:00,25.4,21.5,29.91,NNE,30,2.0,10.0,85,0.00,,,0.00,Wunderground v.1.15,2013-03-02 10:29:00,
2013-03-02 05:34:00,25.3,21.1,29.91,NNW,333,3.0,7.0,84,0.00,,,0.00,Wunderground v.1.15,2013-03-02 10:34:00,
2013-03-02 05:39:00,25.4,21.5,29.91,NNW,331,3.0,9.0,85,0.00,,,0.00,Wunderground v.1.15,2013-03-02 10:39:00,
2013-03-02 05:44:00,25.3,21.1,29.91,NNW,347,2.0,12.0,84,0.00,,,0.00,Wunderground v.1.15,2013-03-02 10:44:00,
2013-03-02 05:49:00,25.4,21.2,29.91,WNW,284,6.0,12.0,84,0.00,,,0.00,Wunderground v.1.15,2013-03-02 10:49:00,
2013-03-02 05:54:00,25.4,21.2,29.91,North,360,6.0,8.0,84,0.00,,,0.00,Wunderground v.1.15,2013-03-02 10:54:00,
2013-03-02 05:59:00,25.4,21.0,29.91,NW,304,1.0,5.0,83,0.00,,,0.00,Wunderground v.1.15,2013-03-02 10:59:00,
2013-03-02 06:05:00,25.3,21.1,29.92,NW,319,2.0,8.0,84,0.00,,,0.00,Wunderground v.1.15,2013-03-02 11:05:00,
2013-03-02 06:10:00,25.4,21.2,29.92,North,355,6.0,6.0,84,0.00,,,0.00,Wunderground v.1.15,2013-03-02 11:10:00,
2013-03-02 06:15:00,25.4,21.2,29.92,WNW,303,2.0,6.0,84,0.00,,,0.00,Wunderground v.1.15,2013-03-02 11:15:00,
2013-03-02 06:20:00,25.3,20.9,29.92,WNW,295,3.0,4.0,83,0.00,,,0.00,Wunderground v.1.15,2013-03-02 11:20:00,
2013-03-02 06:25:00,25.3,20.9,29.91,NW,308,5.0,8.0,83,0.00,,,0.00,Wunderground v.1.15,2013-03-02 11:25:00,
2013-03-02 06:30:00,25.3,21.1,29.91,WNW,303,2.0,3.0,84,0.00,,,0.00,Wunderground v.1.15,2013-03-02 11:30:00,
2013-03-02 06:35:00,25.3,21.1,29.91,WNW,293,4.0,9.0,84,0.00,,,0.00,Wunderground v.1.15,2013-03-02 11:35:00,
2013-03-02 06:40:00,25.3,21.1,29.91,NNW,329,1.0,9.0,84,0.00,,,0.00,Wunderground v.1.15,2013-03-02 11:40:00,
2013-03-02 06:45:00,25.2,21.0,29.91,NW,304,8.0,9.0,84,0.00,,,0.00,Wunderground v.1.15,2013-03-02 11:45:00,
2013-03-02 06:50:00,25.2,21.0,29.91,WNW,289,5.0,5.0,84,0.00,,,0.00,Wunderground v.1.15,2013-03-02 11:50:00,
2013-03-02 06:55:00,25.2,21.0,29.91,WNW,284,4.0,9.0,84,0.00,,,0.00,Wunderground v.1.15,2013-03-02 11:55:00,
2013-03-02 07:00:00,25.2,21.0,29.92,NW,309,6.0,6.0,84,0.00,,,0.00,Wunderground v.1.15,2013-03-02 12:00:00,
2013-03-02 07:06:00,25.2,21.0,29.92,NW,317,4.0,10.0,84,0.00,,,0.00,Wunderground v.1.15,2013-03-02 12:06:00,
2013-03-02 07:11:00,25.2,21.0,29.92,WNW,286,1.0,6.0,84,0.00,,,0.00,Wunderground v.1.15,2013-03-02 12:11:00,
2013-03-02 07:16:00,25.2,21.0,29.92,NNW,339,4.0,7.0,84,0.00,,,0.00,Wunderground v.1.15,2013-03-02 12:16:00,
2013-03-02 07:21:00,25.2,21.0,29.92,WNW,286,4.0,7.0,84,0.00,,,0.00,Wunderground v.1.15,2013-03-02 12:21:00,
2013-03-02 07:26:00,25.2,21.0,29.92,WNW,290,3.0,7.0,84,0.00,,,0.00,Wunderground v.1.15,2013-03-02 12:26:00,
2013-03-02 07:31:00,25.2,21.0,29.92,NW,310,1.0,7.0,84,0.00,,,0.00,Wunderground v.1.15,2013-03-02 12:31:00,
2013-03-02 07:36:00,25.2,21.0,29.92,West,264,4.0,7.0,84,0.00,,,0.00,Wunderground v.1.15,2013-03-02 12:36:00,
2013-03-02 07:41:00,25.2,21.0,29.92,West,274,3.0,4.0,84,0.00,,,0.00,Wunderground v.1.15,2013-03-02 12:41:00,
2013-03-02 07:46:00,25.2,21.3,29.92,West,279,7.0,7.0,85,0.00,,,0.00,Wunderground v.1.15,2013-03-02 12:46:00,
2013-03-02 07:51:00,25.1,21.2,29.92,NW,304,4.0,7.0,85,0.00,,,0.00,Wunderground v.1.15,2013-03-02 12:51:00,
2013-03-02 07:56:00,25.1,21.2,29.92,WNW,289,6.0,9.0,85,0.00,,,0.00,Wunderground v.1.15,2013-03-02 12:56:00,
2013-03-02 08:01:00,25.1,21.2,29.92,NW,306,2.0,7.0,85,0.00,,,0.00,Wunderground v.1.15,2013-03-02 13:01:00,
2013-03-02 08:06:00,25.1,21.5,29.93,NNW,344,3.0,7.0,86,0.00,,,0.00,Wunderground v.1.15,2013-03-02 13:06:00,
2013-03-02 08:11:00,25.2,21.6,29.93,North,5,2.0,5.0,86,0.00,,,0.00,Wunderground v.1.15,2013-03-02 13:11:00,
2013-03-02 08:16:00,25.2,21.9,29.93,NW,319,0.0,5.0,87,0.00,,,0.00,Wunderground v.1.15,2013-03-02 13:16:00,
2013-03-02 08:21:00,25.1,21.8,29.93,WNW,286,3.0,7.0,87,0.00,,,0.00,Wunderground v.1.15,2013-03-02 13:21:00,
2013-03-02 08:26:00,25.1,21.8,29.93,NNW,338,5.0,9.0,87,0.00,,,0.00,Wunderground v.1.15,2013-03-02 13:26:00,
2013-03-02 08:31:00,25.0,21.7,29.93,NNW,327,4.0,7.0,87,0.00,,,0.00,Wunderground v.1.15,2013-03-02 13:31:00,
2013-03-02 08:36:00,24.9,21.6,29.92,North,355,3.0,7.0,87,0.00,,,0.00,Wunderground v.1.15,2013-03-02 13:36:00,
2013-03-02 08:41:00,25.0,21.9,29.92,North,360,5.0,8.0,88,0.00,,,0.00,Wunderground v.1.15,2013-03-02 13:41:00,
2013-03-02 08:46:00,25.0,21.7,29.92,NNW,327,2.0,8.0,87,0.00,,,0.00,Wunderground v.1.15,2013-03-02 13:46:00,
2013-03-02 08:51:00,25.1,21.8,29.92,NNW,338,3.0,5.0,87,0.00,,,0.00,Wunderground v.1.15,2013-03-02 13:51:00,
2013-03-02 08:56:00,25.1,21.8,29.92,NNW,331,1.0,5.0,87,0.00,,,0.00,Wunderground v.1.15,2013-03-02 13:56:00,
2013-03-02 09:01:00,25.3,22.0,29.92,North,10,7.0,8.0,87,0.00,,,0.00,Wunderground v.1.15,2013-03-02 14:01:00,
2013-03-02 09:06:00,25.2,21.9,29.92,NNW,344,3.0,9.0,87,0.00,,,0.00,Wunderground v.1.15,2013-03-02 14:06:00,
2013-03-02 09:11:00,25.2,21.9,29.92,North,355,0.0,4.0,87,0.00,,,0.00,Wunderground v.1.15,2013-03-02 14:11:00,
2013-03-02 09:16:00,25.3,22.2,29.92,North,5,2.0,7.0,88,0.00,,,0.00,Wunderground v.1.15,2013-03-02 14:16:00,
2013-03-02 09:21:00,25.3,22.0,29.92,WSW,248,4.0,9.0,87,0.00,,,0.00,Wunderground v.1.15,2013-03-02 14:21:00,
2013-03-02 09:26:00,25.5,22.4,29.92,North,355,7.0,9.0,88,0.00,,,0.00,Wunderground v.1.15,2013-03-02 14:26:00,
2013-03-02 09:32:00,25.7,22.6,29.92,North,5,4.0,6.0,88,0.00,,,0.00,Wunderground v.1.15,2013-03-02 14:32:00,
2013-03-02 09:37:00,25.8,22.7,29.92,NNE,30,5.0,8.0,88,0.00,,,0.00,Wunderground v.1.15,2013-03-02 14:37:00,
2013-03-02 09:42:00,26.0,22.7,29.92,NW,305,4.0,6.0,87,0.00,,,0.00,Wunderground v.1.15,2013-03-02 14:42:00,
2013-03-02 09:47:00,26.0,22.1,29.92,NW,320,9.0,11.0,85,0.00,,,0.00,Wunderground v.1.15,2013-03-02 14:47:00,
2013-03-02 09:52:00,26.0,22.1,29.92,NNE,22,1.0,9.0,85,0.00,,,0.00,Wunderground v.1.15,2013-03-02 14:52:00,
2013-03-02 09:57:00,26.0,21.8,29.92,WNW,288,9.0,9.0,84,0.00,,,0.00,Wunderground v.1.15,2013-03-02 14:57:00,
2013-03-02 10:02:00,25.9,21.7,29.92,NNE,20,3.0,7.0,84,0.00,,,0.00,Wunderground v.1.15,2013-03-02 15:02:00,
2013-03-02 10:07:00,26.1,21.9,29.91,NW,323,4.0,7.0,84,0.00,,,0.00,Wunderground v.1.15,2013-03-02 15:07:00,
2013-03-02 10:12:00,25.9,21.7,29.92,North,11,2.0,7.0,84,0.00,,,0.00,Wunderground v.1.15,2013-03-02 15:12:00,
2013-03-02 10:17:00,25.7,21.8,29.92,North,5,1.0,11.0,85,0.00,,,0.00,Wunderground v.1.15,2013-03-02 15:17:00,
2013-03-02 10:22:00,25.6,22.0,29.91,WNW,295,2.0,8.0,86,0.00,,,0.00,Wunderground v.1.15,2013-03-02 15:22:00,
2013-03-02 10:27:00,25.6,22.3,29.92,North,355,3.0,8.0,87,0.00,,,0.00,Wunderground v.1.15,2013-03-02 15:27:00,
2013-03-02 10:32:00,25.6,22.3,29.91,West,281,7.0,8.0,87,0.00,,,0.00,Wunderground v.1.15,2013-03-02 15:32:00,
2013-03-02 10:37:00,25.5,22.2,29.91,WNW,295,2.0,8.0,87,0.00,,,0.00,Wunderground v.1.15,2013-03-02 15:37:00,
2013-03-02 10:42:00,25.7,22.4,29.91,North,5,7.0,7.0,87,0.00,,,0.00,Wunderground v.1.15,2013-03-02 15:42:00,
2013-03-02 10:47:00,25.9,22.3,29.91,West,281,4.0,8.0,86,0.00,,,0.00,Wunderground v.1.15,2013-03-02 15:47:00,
2013-03-02 10:52:00,25.9,22.0,29.91,WNW,303,5.0,8.0,85,0.00,,,0.00,Wunderground v.1.15,2013-03-02 15:52:00,
2013-03-02 10:57:00,25.8,21.6,29.91,NW,317,4.0,9.0,84,0.00,,,0.00,Wunderground v.1.15,2013-03-02 15:57:00,
2013-03-02 11:02:00,25.7,21.3,29.91,WNW,300,5.0,11.0,83,0.00,,,0.00,Wunderground v.1.15,2013-03-02 16:02:00,
2013-03-02 11:07:00,25.7,21.3,29.91,West,279,9.0,12.0,83,0.00,,,0.00,Wunderground v.1.15,2013-03-02 16:07:00,
2013-03-02 11:12:00,25.7,21.3,29.91,West,265,2.0,9.0,83,0.00,,,0.00,Wunderground v.1.15,2013-03-02 16:12:00,
2013-03-02 11:17:00,25.8,21.6,29.91,NW,311,6.0,9.0,84,0.00,,,0.00,Wunderground v.1.15,2013-03-02 16:17:00,
2013-03-02 11:22:00,25.8,21.6,29.91,West,281,0.0,4.0,84,0.00,,,0.00,Wunderground v.1.15,2013-03-02 16:22:00,
2013-03-02 11:27:00,25.9,22.0,29.91,WNW,283,5.0,8.0,85,0.00,,,0.00,Wunderground v.1.15,2013-03-02 16:27:00,
2013-03-02 11:33:00,25.6,22.0,29.91,West,277,6.0,11.0,86,0.00,,,0.00,Wunderground v.1.15,2013-03-02 16:33:00,
2013-03-02 11:38:00,25.4,22.1,29.91,WNW,290,5.0,11.0,87,0.00,,,0.00,Wunderground v.1.15,2013-03-02 16:38:00,
2013-03-02 11:43:00,25.5,22.2,29.92,West,281,4.0,6.0,87,0.00,,,0.00,Wunderground v.1.15,2013-03-02 16:43:00,
2013-03-02 11:48:00,25.6,22.0,29.91,WNW,284,4.0,6.0,86,0.00,,,0.00,Wunderground v.1.15,2013-03-02 16:48:00,
2013-03-02 11:53:00,25.6,21.4,29.91,WNW,283,6.0,7.0,84,0.00,,,0.00,Wunderground v.1.15,2013-03-02 16:53:00,
2013-03-02 11:58:00,25.7,21.5,29.91,West,277,7.0,8.0,84,0.00,,,0.00,Wunderground v.1.15,2013-03-02 16:58:00,
2013-03-02 12:03:00,25.8,21.3,29.91,WSW,255,3.0,5.0,83,0.00,,,0.00,Wunderground v.1.15,2013-03-02 17:03:00,
2013-03-02 12:08:00,25.8,21.3,29.91,SW,216,6.0,14.0,83,0.00,,,0.00,Wunderground v.1.15,2013-03-02 17:08:00,
2013-03-02 12:13:00,25.8,21.3,29.91,NW,312,1.0,10.0,83,0.00,,,0.00,Wunderground v.1.15,2013-03-02 17:13:00,
2013-03-02 12:18:00,25.7,21.3,29.90,WNW,303,9.0,13.0,83,0.00,,,0.00,Wunderground v.1.15,2013-03-02 17:18:00,
2013-03-02 12:23:00,25.9,21.4,29.90,NNE,24,5.0,11.0,83,0.00,,,0.00,Wunderground v.1.15,2013-03-02 17:23:00,
2013-03-02 12:28:00,25.9,21.2,29.90,WNW,291,8.0,17.0,82,0.00,,,0.00,Wunderground v.1.15,2013-03-02 17:28:00,
2013-03-02 12:33:00,25.7,21.3,29.90,North,5,5.0,9.0,83,0.00,,,0.00,Wunderground v.1.15,2013-03-02 17:33:00,
2013-03-02 12:38:00,25.9,21.7,29.90,WNW,287,7.0,11.0,84,0.00,,,0.00,Wunderground v.1.15,2013-03-02 17:38:00,
2013-03-02 12:43:00,26.0,21.5,29.90,NW,318,2.0,9.0,83,0.00,,,0.00,Wunderground v.1.15,2013-03-02 17:43:00,
2013-03-02 12:48:00,26.0,21.5,29.89,NNW,328,8.0,15.0,83,0.00,,,0.00,Wunderground v.1.15,2013-03-02 17:48:00,
2013-03-02 12:53:00,25.8,21.6,29.89,WNW,283,3.0,11.0,84,0.00,,,0.00,Wunderground v.1.15,2013-03-02 17:53:00,
2013-03-02 12:58:00,25.9,21.7,29.89,NE,34,3.0,11.0,84,0.00,,,0.00,Wunderground v.1.15,2013-03-02 17:58:00,
2013-03-02 13:03:00,25.9,21.7,29.89,WNW,294,3.0,11.0,84,0.00,,,0.00,Wunderground v.1.15,2013-03-02 18:03:00,
2013-03-02 13:08:00,25.8,21.3,29.89,West,278,7.0,11.0,83,0.00,,,0.00,Wunderground v.1.15,2013-03-02 18:08:00,
2013-03-02 13:13:00,25.8,21.6,29.89,WNW,287,6.0,9.0,84,0.00,,,0.00,Wunderground v.1.15,2013-03-02 18:13:00,
2013-03-02 13:18:00,25.7,21.3,29.89,WNW,292,4.0,10.0,83,0.00,,,0.00,Wunderground v.1.15,2013-03-02 18:18:00,
2013-03-02 13:23:00,25.7,21.3,29.89,West,273,4.0,13.0,83,0.00,,,0.00,Wunderground v.1.15,2013-03-02 18:23:00,
2013-03-02 13:28:00,25.7,21.5,29.89,WNW,302,4.0,13.0,84,0.00,,,0.00,Wunderground v.1.15,2013-03-02 18:28:00,
2013-03-02 13:33:00,25.8,21.6,29.89,West,270,6.0,14.0,84,0.00,,,0.00,Wunderground v.1.15,2013-03-02 18:33:00,
2013-03-02 13:38:00,25.8,21.6,29.89,West,281,6.0,14.0,84,0.00,,,0.00,Wunderground v.1.15,2013-03-02 18:38:00,
2013-03-02 13:43:00,25.6,21.4,29.89,NW,315,9.0,12.0,84,0.00,,,0.00,Wunderground v.1.15,2013-03-02 18:43:00,
2013-03-02 13:48:00,25.5,21.3,29.89,NW,313,4.0,12.0,84,0.00,,,0.00,Wunderground v.1.15,2013-03-02 18:48:00,
2013-03-02 13:53:00,25.5,21.3,29.88,WNW,297,6.0,7.0,84,0.00,,,0.00,Wunderground v.1.15,2013-03-02 18:53:00,
2013-03-02 13:58:00,25.6,21.4,29.88,West,268,5.0,7.0,84,0.00,,,0.00,Wunderground v.1.15,2013-03-02 18:58:00,
2013-03-02 14:03:00,25.6,21.2,29.88,WNW,290,4.0,10.0,83,0.00,,,0.00,Wunderground v.1.15,2013-03-02 19:03:00,
2013-03-02 14:08:00,25.7,21.3,29.88,West,272,7.0,10.0,83,0.00,,,0.00,Wunderground v.1.15,2013-03-02 19:08:00,
2013-03-02 14:13:00,25.7,21.0,29.88,West,259,5.0,11.0,82,0.00,,,0.00,Wunderground v.1.15,2013-03-02 19:13:00,
2013-03-02 14:18:00,25.5,21.1,29.88,West,274,4.0,11.0,83,0.00,,,0.00,Wunderground v.1.15,2013-03-02 19:18:00,
2013-03-02 14:23:00,25.7,21.3,29.88,WNW,294,5.0,11.0,83,0.00,,,0.00,Wunderground v.1.15,2013-03-02 19:23:00,
2013-03-02 14:28:00,25.8,21.3,29.88,West,271,2.0,11.0,83,0.00,,,0.00,Wunderground v.1.15,2013-03-02 19:28:00,
2013-03-02 14:33:00,26.0,21.5,29.88,WNW,288,7.0,11.0,83,0.00,,,0.00,Wunderground v.1.15,2013-03-02 19:33:00,
2013-03-02 14:38:00,25.8,21.3,29.88,West,267,5.0,14.0,83,0.00,,,0.00,Wunderground v.1.15,2013-03-02 19:38:00,
2013-03-02 14:43:00,25.7,21.5,29.88,WNW,298,8.0,13.0,84,0.00,,,0.00,Wunderground v.1.15,2013-03-02 19:43:00,
2013-03-02 14:48:00,25.6,21.4,29.88,WNW,293,7.0,13.0,84,0.00,,,0.00,Wunderground v.1.15,2013-03-02 19:48:00,
2013-03-02 14:53:00,25.6,21.4,29.88,West,261,6.0,14.0,84,0.00,,,0.00,Wunderground v.1.15,2013-03-02 19:53:00,
2013-03-02 14:58:00,25.5,21.6,29.87,NW,319,3.0,14.0,85,0.00,,,0.00,Wunderground v.1.15,2013-03-02 19:58:00,
2013-03-02 15:03:00,25.6,21.7,29.87,WNW,289,8.0,12.0,85,0.00,,,0.00,Wunderground v.1.15,2013-03-02 20:03:00,
2013-03-02 15:08:00,25.7,21.8,29.87,West,278,4.0,12.0,85,0.00,,,0.00,Wunderground v.1.15,2013-03-02 20:08:00,
2013-03-02 15:13:00,25.8,21.9,29.87,NW,309,4.0,7.0,85,0.00,,,0.00,Wunderground v.1.15,2013-03-02 20:13:00,
2013-03-02 15:19:00,25.8,21.9,29.87,West,261,3.0,7.0,85,0.00,,,0.00,Wunderground v.1.15,2013-03-02 20:19:00,
2013-03-02 15:24:00,25.9,22.0,29.87,West,267,4.0,7.0,85,0.00,,,0.00,Wunderground v.1.15,2013-03-02 20:24:00,
2013-03-02 15:29:00,25.8,21.9,29.87,West,279,5.0,7.0,85,0.00,,,0.00,Wunderground v.1.15,2013-03-02 20:29:00,
2013-03-02 15:34:00,25.8,22.2,29.87,WSW,239,3.0,9.0,86,0.00,,,0.00,Wunderground v.1.15,2013-03-02 20:34:00,
2013-03-02 15:39:00,25.8,22.2,29.87,WSW,254,6.0,10.0,86,0.00,,,0.00,Wunderground v.1.15,2013-03-02 20:39:00,
2013-03-02 15:44:00,25.8,22.2,29.87,WNW,303,6.0,9.0,86,0.00,,,0.00,Wunderground v.1.15,2013-03-02 20:44:00,
2013-03-02 15:49:00,25.8,22.5,29.87,West,269,6.0,9.0,87,0.00,,,0.00,Wunderground v.1.15,2013-03-02 20:49:00,
2013-03-02 15:54:00,25.8,22.5,29.87,West,277,2.0,10.0,87,0.00,,,0.00,Wunderground v.1.15,2013-03-02 20:54:00,
2013-03-02 15:59:00,25.8,22.5,29.87,West,279,3.0,10.0,87,0.00,,,0.00,Wunderground v.1.15,2013-03-02 20:59:00,
2013-03-02 16:04:00,25.9,22.6,29.87,WNW,300,3.0,7.0,87,0.00,,,0.00,Wunderground v.1.15,2013-03-02 21:04:00,
2013-03-02 16:09:00,25.9,22.6,29.87,WNW,285,7.0,7.0,87,0.00,,,0.00,Wunderground v.1.15,2013-03-02 21:09:00,
2013-03-02 16:14:00,25.9,22.3,29.87,West,271,3.0,10.0,86,0.00,,,0.00,Wunderground v.1.15,2013-03-02 21:14:00,
2013-03-02 16:19:00,26.0,22.4,29.87,NW,306,3.0,10.0,86,0.00,,,0.00,Wunderground v.1.15,2013-03-02 21:19:00,
2013-03-02 16:24:00,26.0,22.4,29.87,NNW,329,7.0,9.0,86,0.00,,,0.00,Wunderground v.1.15,2013-03-02 21:24:00,
2013-03-02 16:29:00,26.1,22.5,29.87,SSW,204,6.0,9.0,86,0.00,,,0.00,Wunderground v.1.15,2013-03-02 21:29:00,
2013-03-02 16:34:00,26.1,22.2,29.87,WNW,286,5.0,9.0,85,0.00,,,0.00,Wunderground v.1.15,2013-03-02 21:34:00,
2013-03-02 16:39:00,26.1,22.2,29.87,West,274,6.0,10.0,85,0.00,,,0.00,Wunderground v.1.15,2013-03-02 21:39:00,
2013-03-02 16:44:00,26.2,22.3,29.87,WNW,294,3.0,10.0,85,0.00,,,0.00,Wunderground v.1.15,2013-03-02 21:44:00,
2013-03-02 16:49:00,26.2,22.3,29.87,WNW,296,3.0,10.0,85,0.00,,,0.00,Wunderground v.1.15,2013-03-02 21:49:00,
2013-03-02 16:54:00,26.3,22.4,29.86,WNW,294,5.0,11.0,85,0.00,,,0.00,Wunderground v.1.15,2013-03-02 21:54:00,
2013-03-02 16:59:00,26.4,22.5,29.86,West,266,4.0,11.0,85,0.00,,,0.00,Wunderground v.1.15,2013-03-02 21:59:00,
2013-03-02 17:04:00,26.4,22.5,29.86,WNW,296,7.0,9.0,85,0.00,,,0.00,Wunderground v.1.15,2013-03-02 22:04:00,
2013-03-02 17:09:00,26.5,22.6,29.87,WNW,292,4.0,9.0,85,0.00,,,0.00,Wunderground v.1.15,2013-03-02 22:09:00,
2013-03-02 17:14:00,26.5,22.6,29.87,WSW,254,3.0,6.0,85,0.00,,,0.00,Wunderground v.1.15,2013-03-02 22:14:00,
2013-03-02 17:19:00,26.6,22.7,29.87,WNW,294,2.0,4.0,85,0.00,,,0.00,Wunderground v.1.15,2013-03-02 22:19:00,
2013-03-02 17:24:00,26.5,22.6,29.87,WSW,254,3.0,9.0,85,0.00,,,0.00,Wunderground v.1.15,2013-03-02 22:24:00,
2013-03-02 17:29:00,26.6,22.7,29.87,West,280,3.0,4.0,85,0.00,,,0.00,Wunderground v.1.15,2013-03-02 22:29:00,
2013-03-02 17:34:00,26.6,22.7,29.87,WNW,294,3.0,8.0,85,0.00,,,0.00,Wunderground v.1.15,2013-03-02 22:34:00,
2013-03-02 17:39:00,26.6,22.7,29.87,WNW,300,5.0,5.0,85,0.00,,,0.00,Wunderground v.1.15,2013-03-02 22:39:00,
2013-03-02 17:45:00,26.6,22.7,29.87,WSW,239,4.0,7.0,85,0.00,,,0.00,Wunderground v.1.15,2013-03-02 22:45:00,
2013-03-02 17:50:00,26.5,22.6,29.87,WNW,300,3.0,3.0,85,0.00,,,0.00,Wunderground v.1.15,2013-03-02 22:50:00,
2013-03-02 17:55:00,26.4,22.5,29.87,West,277,3.0,5.0,85,0.00,,,0.00,Wunderground v.1.15,2013-03-02 22:55:00,
2013-03-02 18:00:00,26.2,22.6,29.87,West,263,3.0,4.0,86,0.00,,,0.00,Wunderground v.1.15,2013-03-02 23:00:00,
2013-03-02 18:05:00,26.0,22.7,29.88,West,261,3.0,10.0,87,0.00,,,0.00,Wunderground v.1.15,2013-03-02 23:05:00,
2013-03-02 18:10:00,25.8,22.7,29.88,West,272,4.0,4.0,88,0.00,,,0.00,Wunderground v.1.15,2013-03-02 23:10:00,
2013-03-02 18:15:00,25.8,23.0,29.88,WSW,258,2.0,5.0,89,0.00,,,0.00,Wunderground v.1.15,2013-03-02 23:15:00,
2013-03-02 18:20:00,25.6,22.8,29.88,WNW,284,4.0,7.0,89,0.00,,,0.00,Wunderground v.1.15,2013-03-02 23:20:00,
2013-03-02 18:25:00,25.6,22.8,29.88,NW,315,8.0,8.0,89,0.00,,,0.00,Wunderground v.1.15,2013-03-02 23:25:00,
2013-03-02 18:30:00,25.5,23.0,29.88,West,265,3.0,4.0,90,0.00,,,0.00,Wunderground v.1.15,2013-03-02 23:30:00,
2013-03-02 18:35:00,25.5,23.0,29.87,West,265,2.0,4.0,90,0.00,,,0.00,Wunderground v.1.15,2013-03-02 23:35:00,
2013-03-02 18:40:00,25.5,23.0,29.87,WNW,291,3.0,3.0,90,0.00,,,0.00,Wunderground v.1.15,2013-03-02 23:40:00,
2013-03-02 18:45:00,25.5,23.0,29.88,SSW,212,4.0,4.0,90,0.00,,,0.00,Wunderground v.1.15,2013-03-02 23:45:00,
2013-03-02 18:50:00,25.5,23.0,29.88,West,269,3.0,3.0,90,0.00,,,0.00,Wunderground v.1.15,2013-03-02 23:50:00,
2013-03-02 18:55:00,25.5,22.7,29.87,SW,215,5.0,5.0,89,0.00,,,0.00,Wunderground v.1.15,2013-03-02 23:55:00,
2013-03-02 19:00:00,25.6,22.8,29.88,West,279,4.0,6.0,89,0.00,,,0.00,Wunderground v.1.15,2013-03-03 00:00:00,
2013-03-02 19:05:00,25.7,22.9,29.88,WSW,249,2.0,6.0,89,0.00,,,0.00,Wunderground v.1.15,2013-03-03 00:05:00,
2013-03-02 19:10:00,25.7,22.9,29.88,West,277,4.0,4.0,89,0.00,,,0.00,Wunderground v.1.15,2013-03-03 00:10:00,
2013-03-02 19:15:00,25.7,22.9,29.88,WSW,249,2.0,5.0,89,0.00,,,0.00,Wunderground v.1.15,2013-03-03 00:15:00,
2013-03-02 19:20:00,25.8,23.0,29.88,West,271,4.0,4.0,89,0.00,,,0.00,Wunderground v.1.15,2013-03-03 00:20:00,
2013-03-02 19:25:00,25.8,23.0,29.88,WSW,252,0.0,4.0,89,0.00,,,0.00,Wunderground v.1.15,2013-03-03 00:25:00,
2013-03-02 19:31:00,25.8,22.7,29.87,WNW,299,3.0,5.0,88,0.00,,,0.00,Wunderground v.1.15,2013-03-03 00:31:00,
2013-03-02 19:36:00,25.8,22.7,29.87,West,279,2.0,5.0,88,0.00,,,0.00,Wunderground v.1.15,2013-03-03 00:36:00,
2013-03-02 19:41:00,25.9,22.8,29.87,WNW,294,2.0,3.0,88,0.00,,,0.00,Wunderground v.1.15,2013-03-03 00:41:00,
2013-03-02 19:46:00,25.9,22.8,29.87,WNW,300,2.0,6.0,88,0.00,,,0.00,Wunderground v.1.15,2013-03-03 00:46:00,
2013-03-02 19:51:00,25.9,22.8,29.87,SW,222,2.0,4.0,88,0.00,,,0.00,Wunderground v.1.15,2013-03-03 00:51:00,
2013-03-02 19:56:00,26.0,22.9,29.87,WNW,293,3.0,7.0,88,0.00,,,0.00,Wunderground v.1.15,2013-03-03 00:56:00,
2013-03-02 20:01:00,26.1,23.0,29.86,NNE,13,6.0,7.0,88,0.00,,,0.00,Wunderground v.1.15,2013-03-03 01:01:00,
2013-03-02 20:06:00,26.2,23.1,29.87,WNW,302,5.0,7.0,88,0.00,,,0.00,Wunderground v.1.15,2013-03-03 01:06:00,
2013-03-02 20:11:00,26.3,23.2,29.87,NNE,15,0.0,5.0,88,0.00,,,0.00,Wunderground v.1.15,2013-03-03 01:11:00,
2013-03-02 20:16:00,26.6,23.3,29.87,NNE,22,9.0,12.0,87,0.00,,,0.00,Wunderground v.1.15,2013-03-03 01:16:00,
2013-03-02 20:21:00,27.1,22.9,29.87,North,10,9.0,12.0,84,0.00,,,0.00,Wunderground v.1.15,2013-03-03 01:21:00,
2013-03-02 20:26:00,27.5,23.0,29.87,NNE,13,7.0,12.0,83,0.00,,,0.00,Wunderground v.1.15,2013-03-03 01:26:00,
2013-03-02 20:31:00,27.6,22.8,29.87,North,9,8.0,8.0,82,0.00,,,0.00,Wunderground v.1.15,2013-03-03 01:31:00,
2013-03-02 20:36:00,27.7,22.6,29.87,East,90,5.0,13.0,81,0.00,,,0.00,Wunderground v.1.15,2013-03-03 01:36:00,
2013-03-02 20:41:00,27.8,22.7,29.87,NNE,19,7.0,9.0,81,0.00,,,0.00,Wunderground v.1.15,2013-03-03 01:41:00,
2013-03-02 20:46:00,27.8,22.4,29.87,North,11,8.0,12.0,80,0.00,,,0.00,Wunderground v.1.15,2013-03-03 01:46:00,
2013-03-02 20:51:00,27.9,22.2,29.87,North,5,7.0,10.0,79,0.00,,,0.00,Wunderground v.1.15,2013-03-03 01:51:00,
2013-03-02 20:56:00,27.8,22.1,29.87,North,5,5.0,10.0,79,0.00,,,0.00,Wunderground v.1.15,2013-03-03 01:56:00,
2013-03-02 21:01:00,27.8,22.1,29.87,NNE,14,7.0,9.0,79,0.00,,,0.00,Wunderground v.1.15,2013-03-03 02:01:00,
2013-03-02 21:06:00,27.8,22.1,29.87,NNE,13,8.0,11.0,79,0.00,,,0.00,Wunderground v.1.15,2013-03-03 02:06:00,
2013-03-02 21:11:00,27.8,22.1,29.87,North,355,7.0,8.0,79,0.00,,,0.00,Wunderground v.1.15,2013-03-03 02:11:00,
2013-03-02 21:16:00,27.7,22.0,29.87,NNE,30,7.0,13.0,79,0.00,,,0.00,Wunderground v.1.15,2013-03-03 02:16:00,
2013-03-02 21:21:00,27.7,22.0,29.87,East,82,6.0,12.0,79,0.00,,,0.00,Wunderground v.1.15,2013-03-03 02:21:00,
2013-03-02 21:26:00,27.6,21.9,29.87,North,9,6.0,15.0,79,0.00,,,0.00,Wunderground v.1.15,2013-03-03 02:26:00,
2013-03-02 21:31:00,27.5,21.8,29.87,NW,306,2.0,8.0,79,0.00,,,0.00,Wunderground v.1.15,2013-03-03 02:31:00,
2013-03-02 21:36:00,27.5,21.8,29.87,NNE,21,3.0,11.0,79,0.00,,,0.00,Wunderground v.1.15,2013-03-03 02:36:00,
2013-03-02 21:41:00,27.4,21.7,29.87,SE,141,4.0,7.0,79,0.00,,,0.00,Wunderground v.1.15,2013-03-03 02:41:00,
2013-03-02 21:46:00,27.4,21.7,29.87,NNE,13,6.0,13.0,79,0.00,,,0.00,Wunderground v.1.15,2013-03-03 02:46:00,
2013-03-02 21:51:00,27.4,21.7,29.87,North,360,7.0,11.0,79,0.00,,,0.00,Wunderground v.1.15,2013-03-03 02:51:00,
2013-03-02 21:56:00,27.3,21.3,29.87,NNE,15,8.0,13.0,78,0.00,,,0.00,Wunderground v.1.15,2013-03-03 02:56:00,
2013-03-02 22:01:00,27.3,21.3,29.87,North,5,12.0,13.0,78,0.00,,,0.00,Wunderground v.1.15,2013-03-03 03:01:00,
2013-03-02 22:06:00,27.2,20.9,29.87,NNE,15,8.0,13.0,77,0.00,,,0.00,Wunderground v.1.15,2013-03-03 03:06:00,
2013-03-02 22:11:00,27.2,20.9,29.87,NNE,19,7.0,12.0,77,0.00,,,0.00,Wunderground v.1.15,2013-03-03 03:11:00,
2013-03-02 22:16:00,27.1,20.8,29.87,North,10,11.0,14.0,77,0.00,,,0.00,Wunderground v.1.15,2013-03-03 03:16:00,
2013-03-02 22:22:00,26.9,20.7,29.87,North,11,9.0,11.0,77,0.00,,,0.00,Wunderground v.1.15,2013-03-03 03:22:00,
2013-03-02 22:27:00,26.8,20.6,29.87,North,5,3.0,12.0,77,0.00,,,0.00,Wunderground v.1.15,2013-03-03 03:27:00,
2013-03-02 22:32:00,26.7,20.8,29.87,North,355,7.0,10.0,78,0.00,,,0.00,Wunderground v.1.15,2013-03-03 03:32:00,
2013-03-02 22:37:00,26.6,20.7,29.87,North,5,2.0,10.0,78,0.00,,,0.00,Wunderground v.1.15,2013-03-03 03:37:00,
2013-03-02 22:42:00,26.6,21.0,29.87,NE,50,7.0,10.0,79,0.00,,,0.00,Wunderground v.1.15,2013-03-03 03:42:00,
2013-03-02 22:47:00,26.6,21.0,29.87,North,5,8.0,12.0,79,0.00,,,0.00,Wunderground v.1.15,2013-03-03 03:47:00,
2013-03-02 22:52:00,26.5,20.9,29.87,North,9,9.0,11.0,79,0.00,,,0.00,Wunderground v.1.15,2013-03-03 03:52:00,
2013-03-02 22:57:00,26.3,20.7,29.87,North,10,6.0,15.0,79,0.00,,,0.00,Wunderground v.1.15,2013-03-03 03:57:00,
2013-03-02 23:02:00,26.3,20.7,29.87,North,5,8.0,12.0,79,0.00,,,0.00,Wunderground v.1.15,2013-03-03 04:02:00,
2013-03-02 23:07:00,26.2,20.6,29.87,North,360,7.0,13.0,79,0.00,,,0.00,Wunderground v.1.15,2013-03-03 04:07:00,
2013-03-02 23:12:00,26.1,20.8,29.87,NNE,15,6.0,10.0,80,0.00,,,0.00,Wunderground v.1.15,2013-03-03 04:12:00,
2013-03-02 23:17:00,26.1,20.5,29.86,NNE,15,10.0,15.0,79,0.00,,,0.00,Wunderground v.1.15,2013-03-03 04:17:00,
2013-03-02 23:22:00,26.1,20.2,29.86,NNE,26,7.0,9.0,78,0.00,,,0.00,Wunderground v.1.15,2013-03-03 04:22:00,
2013-03-02 23:27:00,26.1,20.2,29.86,NNE,16,11.0,11.0,78,0.00,,,0.00,Wunderground v.1.15,2013-03-03 04:27:00,
2013-03-02 23:32:00,26.0,20.1,29.86,NNE,25,6.0,11.0,78,0.00,,,0.00,Wunderground v.1.15,2013-03-03 04:32:00,
2013-03-02 23:37:00,26.0,20.1,29.86,North,10,7.0,14.0,78,0.00,,,0.00,Wunderground v.1.15,2013-03-03 04:37:00,
2013-03-02 23:42:00,26.0,20.1,29.86,NNE,17,5.0,8.0,78,0.00,,,0.00,Wunderground v.1.15,2013-03-03 04:42:00,
2013-03-02 23:47:00,25.9,20.3,29.86,North,9,4.0,14.0,79,0.00,,,0.00,Wunderground v.1.15,2013-03-03 04:47:00,
2013-03-02 23:52:00,25.8,20.2,29.86,North,5,4.0,10.0,79,0.00,,,0.00,Wunderground v.1.15,2013-03-03 04:52:00,
2013-03-02 23:57:00,25.8,20.2,29.86,North,5,7.0,10.0,79,0.00,,,0.00,Wunderground v.1.15,2013-03-03 04:57:00,